Time,TemperatureF,DewpointF,PressureIn,WindDirection,WindDirectionDegrees,WindSpeedMPH,WindSpeedGustMPH,Humidity,HourlyPrecipIn,Conditions,Clouds,dailyrainin,SoftwareType,DateUTC
2013-08-02 00:00:00,76.0,-99.9,-100.00,North,-999,1.0,5.0,43,-99.99,,,-99.99,,2013-08-02 06:00:00,
2013-08-02 00:22:00,-999.0,-99.9,-100.00,North,-999,1.0,5.0,43,-99.99,,,-99.99,,2013-08-02 06:22:00,
2013-08-02 00:43:00,76.0,-99.9,-100.00,North,-999,1.0,5.0,43,-99.99,,,-99.99,,2013-08-02 06:43:00,
2013-08-02 00:52:00,76.0,-99.9,-100.00,North,-999,1.0,5.0,43,-99.99,,,-99.99,,2013-08-02 06:52:00,
2013-08-02 01:00:00,75.0,-99.9,-100.00,North,-999,2.0,4.0,49,-99.99,,,-99.99,,2013-08-02 07:00:00,
2013-08-02 01:22:00,-999.0,-99.9,-100.00,North,-999,2.0,4.0,49,-99.99,,,-99.99,,2013-08-02 07:22:00,
2013-08-02 01:44:00,75.0,-99.9,-100.00,North,-999,2.0,4.0,49,-99.99,,,-99.99,,2013-08-02 07:44:00,
2013-08-02 01:53:00,75.0,-99.9,-100.00,North,-999,2.0,4.0,49,-99.99,,,-99.99,,2013-08-02 07:53:00,
2013-08-02 02:00:00,73.0,-99.9,-100.00,North,-999,2.0,5.0,54,-99.99,,,-99.99,,2013-08-02 08:00:00,
2013-08-02 02:22:00,-999.0,-99.9,-100.00,North,-999,2.0,5.0,54,-99.99,,,-99.99,,2013-08-02 08:22:00,
2013-08-02 02:44:00,73.0,-99.9,-100.00,North,-999,2.0,5.0,54,-99.99,,,-99.99,,2013-08-02 08:44:00,
2013-08-02 02:54:00,73.0,-99.9,-100.00,North,-999,2.0,5.0,54,-99.99,,,-99.99,,2013-08-02 08:54:00,
2013-08-02 03:00:00,71.0,-99.9,-100.00,North,-999,1.0,3.0,60,-99.99,,,-99.99,,2013-08-02 09:00:00,
2013-08-02 03:23:00,-999.0,-99.9,-100.00,North,-999,1.0,3.0,60,-99.99,,,-99.99,,2013-08-02 09:23:00,
2013-08-02 03:33:00,71.0,-99.9,-100.00,North,-999,1.0,3.0,60,-99.99,,,-99.99,,2013-08-02 09:33:00,
2013-08-02 03:44:00,71.0,-99.9,-100.00,North,-999,1.0,3.0,60,-99.99,,,-99.99,,2013-08-02 09:44:00,
2013-08-02 03:53:00,71.0,-99.9,-100.00,North,-999,1.0,3.0,60,-99.99,,,-99.99,,2013-08-02 09:53:00,
2013-08-02 04:00:00,68.0,-99.9,-100.00,North,-999,0.0,2.0,75,-99.99,,,-99.99,,2013-08-02 10:00:00,
2013-08-02 04:44:00,68.0,-99.9,-100.00,North,-999,0.0,2.0,75,-99.99,,,-99.99,,2013-08-02 10:44:00,
2013-08-02 04:52:00,68.0,-99.9,-100.00,North,-999,0.0,2.0,75,-99.99,,,-99.99,,2013-08-02 10:52:00,
2013-08-02 05:00:00,68.0,-99.9,-100.00,North,-999,0.0,2.0,82,-99.99,,,-99.99,,2013-08-02 11:00:00,
2013-08-02 05:23:00,-999.0,-99.9,-100.00,North,-999,0.0,2.0,82,-99.99,,,-99.99,,2013-08-02 11:23:00,
2013-08-02 05:43:00,68.0,-99.9,-100.00,North,-999,0.0,2.0,82,-99.99,,,-99.99,,2013-08-02 11:43:00,
2013-08-02 05:52:00,68.0,-99.9,-100.00,North,-999,0.0,2.0,82,-99.99,,,-99.99,,2013-08-02 11:52:00,
2013-08-02 06:00:00,67.0,-99.9,-100.00,North,-999,1.0,3.0,88,-99.99,,,-99.99,,2013-08-02 12:00:00,
2013-08-02 06:22:00,-999.0,-99.9,-100.00,North,-999,1.0,3.0,88,-99.99,,,-99.99,,2013-08-02 12:22:00,
2013-08-02 06:43:00,67.0,-99.9,-100.00,North,-999,1.0,3.0,88,-99.99,,,-99.99,,2013-08-02 12:43:00,
2013-08-02 06:52:00,67.0,-99.9,-100.00,North,-999,1.0,3.0,88,-99.99,,,-99.99,,2013-08-02 12:52:00,
2013-08-02 07:00:00,68.0,-99.9,-100.00,North,-999,1.0,2.0,86,-99.99,,,-99.99,,2013-08-02 13:00:00,
2013-08-02 07:23:00,-999.0,-99.9,-100.00,North,-999,1.0,2.0,86,-99.99,,,-99.99,,2013-08-02 13:23:00,
2013-08-02 07:33:00,68.0,-99.9,-100.00,North,-999,1.0,2.0,86,-99.99,,,-99.99,,2013-08-02 13:33:00,
2013-08-02 07:43:00,68.0,-99.9,-100.00,North,-999,1.0,2.0,86,-99.99,,,-99.99,,2013-08-02 13:43:00,
2013-08-02 07:52:00,68.0,-99.9,-100.00,North,-999,1.0,2.0,86,-99.99,,,-99.99,,2013-08-02 13:52:00,
2013-08-02 08:00:00,73.0,-99.9,-100.00,North,-999,2.0,4.0,67,-99.99,,,-99.99,,2013-08-02 14:00:00,
2013-08-02 08:23:00,-999.0,-99.9,-100.00,North,-999,2.0,4.0,67,-99.99,,,-99.99,,2013-08-02 14:23:00,
2013-08-02 08:43:00,73.0,-99.9,-100.00,North,-999,2.0,4.0,67,-99.99,,,-99.99,,2013-08-02 14:43:00,
2013-08-02 08:53:00,73.0,-99.9,-100.00,North,-999,2.0,4.0,67,-99.99,,,-99.99,,2013-08-02 14:53:00,
2013-08-02 09:00:00,76.0,-99.9,-100.00,North,-999,2.0,4.0,58,-99.99,,,-99.99,,2013-08-02 15:00:00,
2013-08-02 09:22:00,-999.0,-99.9,-100.00,North,-999,2.0,4.0,58,-99.99,,,-99.99,,2013-08-02 15:22:00,
2013-08-02 09:43:00,76.0,-99.9,-100.00,North,-999,2.0,4.0,58,-99.99,,,-99.99,,2013-08-02 15:43:00,
2013-08-02 09:53:00,76.0,-99.9,-100.00,North,-999,2.0,4.0,58,-99.99,,,-99.99,,2013-08-02 15:53:00,
2013-08-02 10:00:00,80.0,-99.9,-100.00,North,-999,2.0,5.0,50,-99.99,,,-99.99,,2013-08-02 16:00:00,
2013-08-02 10:22:00,-999.0,-99.9,-100.00,North,-999,2.0,5.0,50,-99.99,,,-99.99,,2013-08-02 16:22:00,
2013-08-02 10:32:00,80.0,-99.9,-100.00,North,-999,2.0,5.0,50,-99.99,,,-99.99,,2013-08-02 16:32:00,
2013-08-02 10:43:00,80.0,-99.9,-100.00,North,-999,2.0,5.0,50,-99.99,,,-99.99,,2013-08-02 16:43:00,
2013-08-02 10:53:00,80.0,-99.9,-100.00,North,-999,2.0,5.0,50,-99.99,,,-99.99,,2013-08-02 16:53:00,
2013-08-02 11:00:00,84.0,-99.9,-100.00,North,-999,2.0,6.0,41,-99.99,,,-99.99,,2013-08-02 17:00:00,
2013-08-02 11:22:00,-999.0,-99.9,-100.00,North,-999,2.0,6.0,41,-99.99,,,-99.99,,2013-08-02 17:22:00,
2013-08-02 11:35:00,84.0,-99.9,-100.00,North,-999,2.0,6.0,41,-99.99,,,-99.99,,2013-08-02 17:35:00,
2013-08-02 11:43:00,84.0,-99.9,-100.00,North,-999,2.0,6.0,41,-99.99,,,-99.99,,2013-08-02 17:43:00,
2013-08-02 11:52:00,84.0,-99.9,-100.00,North,-999,2.0,6.0,41,-99.99,,,-99.99,,2013-08-02 17:52:00,
2013-08-02 12:00:00,88.0,-99.9,-100.00,North,-999,3.0,7.0,34,-99.99,,,-99.99,,2013-08-02 18:00:00,
2013-08-02 12:22:00,-999.0,-99.9,-100.00,North,-999,3.0,7.0,34,-99.99,,,-99.99,,2013-08-02 18:22:00,
2013-08-02 12:32:00,88.0,-99.9,-100.00,North,-999,3.0,7.0,34,-99.99,,,-99.99,,2013-08-02 18:32:00,
2013-08-02 12:43:00,88.0,-99.9,-100.00,North,-999,3.0,7.0,34,-99.99,,,-99.99,,2013-08-02 18:43:00,
2013-08-02 12:52:00,88.0,-99.9,-100.00,North,-999,3.0,7.0,34,-99.99,,,-99.99,,2013-08-02 18:52:00,
2013-08-02 13:00:00,90.0,-99.9,-100.00,North,-999,4.0,8.0,29,-99.99,,,-99.99,,2013-08-02 19:00:00,
2013-08-02 13:22:00,-999.0,-99.9,-100.00,North,-999,4.0,8.0,29,-99.99,,,-99.99,,2013-08-02 19:22:00,
2013-08-02 13:43:00,90.0,-99.9,-100.00,North,-999,4.0,8.0,29,-99.99,,,-99.99,,2013-08-02 19:43:00,
2013-08-02 13:52:00,90.0,-99.9,-100.00,North,-999,4.0,8.0,29,-99.99,,,-99.99,,2013-08-02 19:52:00,
2013-08-02 14:00:00,92.0,-99.9,-100.00,North,-999,4.0,10.0,25,-99.99,,,-99.99,,2013-08-02 20:00:00,
2013-08-02 14:23:00,-999.0,-99.9,-100.00,North,-999,4.0,10.0,25,-99.99,,,-99.99,,2013-08-02 20:23:00,
2013-08-02 14:43:00,92.0,-99.9,-100.00,North,-999,4.0,10.0,25,-99.99,,,-99.99,,2013-08-02 20:43:00,
2013-08-02 14:52:00,92.0,-99.9,-100.00,North,-999,4.0,10.0,25,-99.99,,,-99.99,,2013-08-02 20:52:00,
2013-08-02 15:00:00,92.0,-99.9,-100.00,North,-999,4.0,12.0,26,-99.99,,,-99.99,,2013-08-02 21:00:00,
2013-08-02 15:22:00,-999.0,-99.9,-100.00,North,-999,4.0,12.0,26,-99.99,,,-99.99,,2013-08-02 21:22:00,
2013-08-02 15:43:00,92.0,-99.9,-100.00,North,-999,4.0,12.0,26,-99.99,,,-99.99,,2013-08-02 21:43:00,
2013-08-02 15:53:00,92.0,-99.9,-100.00,North,-999,4.0,12.0,26,-99.99,,,-99.99,,2013-08-02 21:53:00,
2013-08-02 16:00:00,93.0,-99.9,-100.00,North,-999,8.0,16.0,23,-99.99,,,-99.99,,2013-08-02 22:00:00,
2013-08-02 16:22:00,-999.0,-99.9,-100.00,North,-999,8.0,16.0,23,-99.99,,,-99.99,,2013-08-02 22:22:00,
2013-08-02 16:43:00,93.0,-99.9,-100.00,North,-999,8.0,16.0,23,-99.99,,,-99.99,,2013-08-02 22:43:00,
2013-08-02 16:52:00,93.0,-99.9,-100.00,North,-999,8.0,16.0,23,-99.99,,,-99.99,,2013-08-02 22:52:00,
2013-08-02 17:00:00,92.0,-99.9,-100.00,North,-999,3.0,8.0,24,-99.99,,,-99.99,,2013-08-02 23:00:00,
2013-08-02 17:22:00,-999.0,-99.9,-100.00,North,-999,3.0,8.0,24,-99.99,,,-99.99,,2013-08-02 23:22:00,
2013-08-02 17:32:00,92.0,-99.9,-100.00,North,-999,3.0,8.0,24,-99.99,,,-99.99,,2013-08-02 23:32:00,
2013-08-02 17:43:00,92.0,-99.9,-100.00,North,-999,3.0,8.0,24,-99.99,,,-99.99,,2013-08-02 23:43:00,
2013-08-02 17:53:00,92.0,-99.9,-100.00,North,-999,3.0,8.0,24,-99.99,,,-99.99,,2013-08-02 23:53:00,
2013-08-02 18:00:00,90.0,-99.9,-100.00,North,-999,5.0,14.0,30,-99.99,,,-99.99,,2013-08-03 00:00:00,
2013-08-02 18:22:00,-999.0,-99.9,-100.00,North,-999,5.0,14.0,30,-99.99,,,-99.99,,2013-08-03 00:22:00,
2013-08-02 18:43:00,90.0,-99.9,-100.00,North,-999,5.0,14.0,30,-99.99,,,-99.99,,2013-08-03 00:43:00,
2013-08-02 18:52:00,90.0,-99.9,-100.00,North,-999,5.0,14.0,30,-99.99,,,-99.99,,2013-08-03 00:52:00,
2013-08-02 19:00:00,87.0,-99.9,-100.00,North,-999,5.0,19.0,29,-99.99,,,-99.99,,2013-08-03 01:00:00,
2013-08-02 19:22:00,-999.0,-99.9,-100.00,North,-999,5.0,19.0,29,-99.99,,,-99.99,,2013-08-03 01:22:00,
2013-08-02 19:33:00,87.0,-99.9,-100.00,North,-999,5.0,19.0,29,-99.99,,,-99.99,,2013-08-03 01:33:00,
2013-08-02 19:43:00,87.0,-99.9,-100.00,North,-999,5.0,19.0,29,-99.99,,,-99.99,,2013-08-03 01:43:00,
2013-08-02 19:53:00,87.0,-99.9,-100.00,North,-999,5.0,19.0,29,-99.99,,,-99.99,,2013-08-03 01:53:00,
2013-08-02 20:00:00,88.0,-99.9,-100.00,North,-999,16.0,28.0,27,-99.99,,,-99.99,,2013-08-03 02:00:00,
2013-08-02 20:22:00,-999.0,-99.9,-100.00,North,-999,16.0,28.0,27,-99.99,,,-99.99,,2013-08-03 02:22:00,
2013-08-02 20:32:00,88.0,-99.9,-100.00,North,-999,16.0,28.0,27,-99.99,,,-99.99,,2013-08-03 02:32:00,
2013-08-02 20:43:00,88.0,-99.9,-100.00,North,-999,16.0,28.0,27,-99.99,,,-99.99,,2013-08-03 02:43:00,
2013-08-02 20:53:00,88.0,-99.9,-100.00,North,-999,16.0,28.0,27,-99.99,,,-99.99,,2013-08-03 02:53:00,
2013-08-02 21:00:00,85.0,-99.9,-100.00,North,-999,9.0,16.0,32,-99.99,,,-99.99,,2013-08-03 03:00:00,
2013-08-02 21:22:00,-999.0,-99.9,-100.00,North,-999,9.0,16.0,32,-99.99,,,-99.99,,2013-08-03 03:22:00,
2013-08-02 21:43:00,85.0,-99.9,-100.00,North,-999,9.0,16.0,32,-99.99,,,-99.99,,2013-08-03 03:43:00,
2013-08-02 21:53:00,85.0,-99.9,-100.00,North,-999,9.0,16.0,32,-99.99,,,-99.99,,2013-08-03 03:53:00,
2013-08-02 22:00:00,82.0,-99.9,-100.00,North,-999,7.0,13.0,38,-99.99,,,-99.99,,2013-08-03 04:00:00,
2013-08-02 22:22:00,-999.0,-99.9,-100.00,North,-999,7.0,13.0,38,-99.99,,,-99.99,,2013-08-03 04:22:00,
2013-08-02 22:33:00,82.0,-99.9,-100.00,North,-999,7.0,13.0,38,-99.99,,,-99.99,,2013-08-03 04:33:00,
2013-08-02 22:43:00,82.0,-99.9,-100.00,North,-999,7.0,13.0,38,-99.99,,,-99.99,,2013-08-03 04:43:00,
2013-08-02 22:53:00,82.0,-99.9,-100.00,North,-999,7.0,13.0,38,-99.99,,,-99.99,,2013-08-03 04:53:00,
2013-08-02 23:00:00,77.0,-99.9,-100.00,North,-999,6.0,13.0,52,-99.99,,,-99.99,,2013-08-03 05:00:00,
2013-08-02 23:22:00,-999.0,-99.9,-100.00,North,-999,6.0,13.0,52,-99.99,,,-99.99,,2013-08-03 05:22:00,